User: anonymous   Login
Location: Unspecified
(0.0000°N, 0.0000°E)
Time: 13:31:19
(UTC+00:00)
Language:

STSS DEMO 1 (USA 208) - Orbit

View from above orbital plane
View from above orbital plane
View from above satellite
View from above satellite

Ground track
Ground track

The orbit data is extracted from the following two-line orbital elements,

1 35937U 09052A   16205.92809840 0.00000140  00000-0  61944-3 0    02
2 35937  57.9907 191.4205 0013464 313.5075  46.4924 12.79320313    00
Epoch (UTC): 23 July 2016 22:16:27
Eccentricity: 0.0013464
inclination: 57.9907°
perigee height: 1334 km
apogee height: 1354 km
right ascension of ascending node: 191.4205°
argument of perigee: 313.5075°
revolutions per day: 12.79320313
mean anomaly at epoch: 46.4924°
orbit number at epoch: 0

The dashed part of the orbit path shows where the satellite is in the earth's shadow,  

DLR